AO-07 1 07530U 74089B 16349.88493766 -.00000053 00000-0 -54221-4 0 9995 2 07530 101.6031 316.4132 0011986 321.4863 66.4094 12.53624640925762 FO-29 1 24278U 96046B 16349.81993941 -.00000017 00000-0 15439-4 0 9990 2 24278 98.5837 251.3787 0351362 94.9141 269.2202 13.53072621 3945 RS-22 1 27939U 03042A 16350.85996755 .00000109 00000-0 27968-4 0 9994 2 27939 97.9121 135.8237 0014355 88.8186 53.1764 14.66499913706446 AO-73 1 39444U 13066AE 16350.68251028 .00000290 00000-0 42576-4 0 9996 2 39444 97.6576 36.3954 0059592 146.3280 214.1742 14.81282961164442 EO-79 1 40025U 14033R 16350.80826854 .00000309 00000-0 39534-4 0 9998 2 40025 97.9201 256.1171 0012396 181.6196 178.4983 14.88248039135216 XW-2A 1 40903U 15049E 16350.80402893 .00001813 00000-0 51074-4 0 9998 2 40903 97.4359 8.2214 0014666 198.4896 161.5817 15.37721330 69455 XW-2C 1 40906U 15049H 16350.87532333 .00000654 00000-0 39353-4 0 9999 2 40906 97.4538 354.1058 0016738 125.7836 234.4954 15.14130922 68496 LILACSAT-2 1 40908U 15049K 16350.82606188 .00000406 00000-0 26660-4 0 9998 2 40908 97.4605 353.7984 0017697 121.4306 238.8658 15.12871867 68448 UO-11 1 14781U 84021B 16350.15457429 .00000083 00000-0 16605-4 0 9991 2 14781 97.7252 36.3743 0009998 84.2888 275.9466 14.82838203763075 LO-19 1 20442U 90005G 16350.76826595 .00000016 00000-0 22071-4 0 9992 2 20442 98.5600 283.3036 0011320 335.0219 25.0416 14.32842517405359 AO-27 1 22825U 93061C 16350.45070353 -.00000005 00000-0 15459-4 0 9994 2 22825 98.7860 308.0470 0008982 142.2791 217.9022 14.29979906211142 IO-26 1 22826U 93061D 16349.89424725 -.00000001 00000-0 16978-4 0 9990 2 22826 98.7801 307.5890 0009618 135.5072 224.6884 14.30306887211237 GO-32 1 25397U 98043D 16349.91164926 -.00000012 00000-0 13666-4 0 9991 2 25397 098.5895 290.3397 0001700 134.8075 225.3243 14.23610729957356 NO-44 1 26931U 01043C 16350.36098245 -.00000020 00000-0 24105-4 0 9990 2 26931 67.0501 205.4846 0005832 280.1327 79.9116 14.30439543794056 SO-50 1 27607U 02058C 16350.77597780 .00000132 00000-0 19028-4 0 9992 2 27607 64.5564 326.0099 0046256 172.4147 187.8157 14.75261505752054 CO-55 1 27844U 03031E 16350.57073542 .00000053 00000-0 43770-4 0 9993 2 27844 98.6914 356.2453 0010183 153.2830 206.8874 14.22001812698220 CO-57 1 27848U 03031J 16350.80258918 .00000036 00000-0 36451-4 0 9994 2 27848 98.7009 356.6517 0009963 161.1040 199.0509 14.21621537698140 CO-65 1 32785U 08021C 16350.37040992 .00000233 00000-0 31217-4 0 9991 2 32785 97.5844 16.8747 0014457 60.8887 299.3776 14.87753394467567 PRISM 1 33493U 09002B 16350.70302084 .00000335 00000-0 36131-4 0 9991 2 33493 98.1908 219.1339 0015659 333.2977 26.7440 14.95355737428351 TISAT-1 1 36799U 10035E 16350.30664518 .00000383 00000-0 45572-4 0 9992 2 36799 98.0448 103.5860 0012019 205.3860 154.6768 14.90150164348394 ALMASAT-1 1 38078U 12006B 16349.94249464 .00013575 36073-5 17126-3 0 9995 2 38078 069.4464 264.8972 0347800 201.0778 157.5756 15.12911962256833 DUCHIFAT-1 1 40021U 14033M 16350.80145213 .00000403 00000-0 48114-4 0 9996 2 40021 97.9244 257.6529 0012929 179.2358 180.8881 14.89643622135297 NANOSATCBR1 1 40024U 14033Q 16350.78985127 .00000345 00000-0 42668-4 0 9995 2 40024 97.9211 256.8012 0012225 179.4670 180.6562 14.89004787135253 DTUSAT-2 1 40030U 14033W 16350.70009819 .00000304 00000-0 39317-4 0 9991 2 40030 97.9173 255.3011 0011947 175.8323 184.2995 14.87875099135176 ANTELSAT 1 40034U 14033AA 16350.74813831 .00000236 00000-0 43036-4 0 9993 2 40034 97.8815 234.0961 0059458 161.3960 198.9441 14.73565041133912 MET-2/21 1 22782U 93055A 16350.88096178 .00000009 00000-0 -55172-5 0 9990 2 22782 82.5475 169.0540 0021635 223.0827 245.8942 13.83794970176346 NOAA-15 1 25338U 98030A 16350.56286216 .00000025 00000-0 29436-4 0 9997 2 25338 98.7842 355.0917 0011023 24.9575 335.2135 14.25768657966835 NOAA-18 1 28654U 05018A 16350.56829669 -.00000015 00000-0 17133-4 0 9991 2 28654 99.1936 2.1911 0013723 224.1375 135.8701 14.12318420596346 NOAA-19 1 33591U 09005A 16350.54823526 .00000095 00000-0 76330-4 0 9992 2 33591 99.0666 309.0329 0014966 69.7966 290.4813 14.12135712404736 HUBBLE 1 20580U 90037B 16350.23893519 .00000451 00000-0 16855-4 0 9998 2 20580 28.4690 142.8731 0002783 358.4596 30.0751 15.08620656262478 ISS 1 25544U 98067A 16351.05634075 .00003842 00000-0 65766-4 0 9997 2 25544 51.6454 231.1985 0006142 337.4683 170.7352 15.53904677 33270 CO-58 1 28895U 05043F 16350.71782087 .00000154 00000-0 38545-4 0 9998 2 28895 97.8438 155.6982 0016978 8.8700 351.2800 14.63313805593654 AAUSAT2 1 32788U 08021F 16349.68189769 .00000428 00000-0 45736-4 0 9999 2 32788 97.5823 26.4141 0012808 33.9167 326.2870 14.93595647468133 DO-64 1 32789U 08021G 16350.79548569 .00001044 00000-0 79473-4 0 9991 2 32789 97.5838 46.7279 0013091 11.0576 349.0935 15.04176587469297 CO-66 1 32791U 08021J 16350.05144473 .00000392 00000-0 46081-4 0 9993 2 32791 97.5838 20.3427 0014582 49.8326 310.4167 14.90029899467723 RS-30 1 32953U 08025A 16350.53630950 .00000017 00000-0 54539-4 0 9991 2 32953 82.5023 353.8698 0018336 329.7623 30.2397 12.43073849388609 JUGNU 1 37839U 11058B 16350.77377064 .00000280 00000-0 76517-5 0 9992 2 37839 19.9607 122.5787 0019034 322.0120 152.9894 14.12565537267735 SRMSAT 1 37841U 11058D 16349.86709527 .00000292 00000-0 15388-4 0 9997 2 37841 19.9704 165.9702 0011827 216.5938 256.9954 14.10560906267229 AO-71 1 37854U 11061E 16350.20607651 .00001748 00000-0 10257-3 0 9996 2 37854 101.7013 124.2748 0170117 259.1074 99.0954 15.03264113279285 HRBE 1 37855U 11061F 16349.88793721 .00001327 00000-0 78767-4 0 9997 2 37855 101.7144 121.7327 0183030 265.3939 092.6346 15.02208389278648 HORYU-2 1 38340U 12025D 16350.89313503 .00000219 00000-0 40446-4 0 9999 2 38340 98.3691 342.4489 0012223 149.6906 210.5011 14.75209377246260 RS-40 1 38735U 12041C 16350.79166435 .00000003 00000-0 -49122-4 0 9996 2 38735 82.4771 78.5452 0017493 70.3898 289.9068 12.42574276198928 BEESAT-3 1 39134U 13015E 16350.60251443 .00000986 00000-0 49295-4 0 9996 2 39134 64.8697 98.6364 0020847 305.9018 54.0678 15.17005486201623 BEESAT-2 1 39136U 13015G 16350.70417032 .00001208 00000-0 75522-4 0 9997 2 39136 64.8700 106.5527 0021907 306.2024 53.7075 15.14457291201482 ZACUBE-1 1 39417U 13066B 16350.20841574 .00000262 00000-0 39682-4 0 9998 2 39417 97.6563 35.1199 0060302 150.4075 210.0573 14.80576352165554 TRITON-1 1 39427U 13066M 16349.94315021 .00000200 00000-0 40288-4 0 9997 2 39427 097.6504 011.5491 0113709 218.2783 141.0312 14.67340543163831 GOMX-1 1 39430U 13066Q 16350.55546793 .00000185 00000-0 43162-4 0 9998 2 39430 97.6631 357.6491 0150767 262.8993 95.5044 14.58751881163154 LO-74 1 39440U 13066AA 16350.79123689 .00000235 00000-0 40006-4 0 9990 2 39440 97.6515 26.3399 0081171 174.2146 186.0021 14.75326686165053 SPROUT 1 39770U 14029E 16350.81384560 .00001086 00000-0 13082-3 0 9994 2 39770 97.8734 86.0798 0008836 200.5919 159.4891 14.85872633138900 EO-80 1 40032U 14033Y 16350.80148825 .00000297 00000-0 38627-4 0 9999 2 40032 97.9181 255.4104 0011930 175.7651 184.3668 14.87810053135173 VELOX-1 1 40057U 14034E 16350.84691960 .00000510 00000-0 80106-4 0 9991 2 40057 98.1907 82.3651 0009842 288.6876 71.3257 14.76946333132697 DAURIA DX 1 1 40071U 14037C 16350.83079390 .00000191 00000-0 32052-4 0 9998 2 40071 98.3319 88.7585 0007330 285.9104 74.1301 14.80933171131839 UKUBE-1 1 40074U 14037F 16350.82068513 .00000543 00000-0 73392-4 0 9998 2 40074 98.3383 91.6912 0003589 290.6687 69.4136 14.83319483131998 HODOYOSHI-1 1 40299U 14070B 16350.84378785 .00000876 00000-0 41501-4 0 9997 2 40299 97.4193 70.2883 0014125 22.0919 116.4441 15.21865995117059 CHUBUSAT-1 1 40300U 14070C 16350.82718697 .00000962 00000-0 47033-4 0 9990 2 40300 97.4138 67.9810 0021934 27.3285 68.3133 15.20427948116923 QSAT-EOS 1 40301U 14070D 16350.80249865 .00002106 00000-0 93529-4 0 9998 2 40301 97.4073 67.5769 0029242 24.4303 123.2206 15.22295233116924 FIREBIRD FU3 1 40377U 15003B 16350.10661447 .00002457 00000-0 11109-3 0 9997 2 40377 99.1051 131.7101 0138763 251.6856 106.9233 15.14112286103147 FIREBIRD FU4 1 40378U 15003C 16350.43173261 .00002683 00000-0 12067-3 0 9991 2 40378 99.1054 132.1229 0138957 250.5293 108.0877 15.14132056103194 GRIFEX 1 40379U 15003D 16350.86554335 .00002161 00000-0 10302-3 0 9995 2 40379 99.1061 131.1661 0143897 254.5284 104.0011 15.11996166103176 NO-84 1 40654U 15025D 16350.34269089 .00003803 00000-0 82238-4 0 03128 2 40654 054.9972 336.0281 0194466 163.7073 197.0245 15.29841351051729 NO-83 1 40655U 15025E 16350.39683910 .00008788 00000-0 15479-3 0 03508 2 40655 054.9853 321.9863 0169493 170.9849 189.4290 15.37045146051902 DEORBITSAIL 1 40719U 15032E 16350.12826557 .00000471 00000-0 75983-4 0 9991 2 40719 97.9985 239.9858 0017243 19.3754 340.8107 14.75836211 77173 NUDT-PHONESAT 1 40900U 15049B 16350.82212315 .00001932 00000-0 97320-4 0 9991 2 40900 97.4442 355.4991 0015504 139.9059 220.3323 15.18279286 68628 XW-2D 1 40907U 15049J 16350.73739024 .00000697 00000-0 41611-4 0 9998 2 40907 97.4505 353.7844 0016138 124.5374 235.7384 15.14207022 68472 XW-2F 1 40910U 15049M 16350.90073369 .00001040 00000-0 59193-4 0 9991 2 40910 97.4531 354.3543 0017086 122.6376 237.6508 15.14901250 68396 XW-2B 1 40911U 15049N 16350.87168041 .00000681 00000-0 40815-4 0 9991 2 40911 97.4551 354.1943 0016036 124.3361 235.9391 15.14179048 68391 DCBB 1 40912U 15049P 16350.87513730 .00001789 00000-0 93775-4 0 9994 2 40912 97.4521 355.6370 0017491 116.5063 315.1046 15.16934419 68499 TW-1C 1 40926U 15051B 16350.77950821 .00006174 00000-0 15739-3 0 9993 2 40926 97.2541 25.9001 0014311 111.4142 339.5149 15.39790898 68672 TW-1A 1 40928U 15051D 16350.86659722 .00002452 00000-0 75063-4 0 9993 2 40928 97.2503 23.9266 0014396 130.3316 226.9343 15.34685230 68560 IO-86 1 40931U 15052B 16349.84012689 .00000738 00000-0 13866-4 0 9997 2 40931 5.9991 107.1252 0012760 155.0599 205.0437 14.76502999 65677 GomX-3 1 40949U 98067HA 16292.18357804 .08527750 12374-4 77882-3 0 9992 2 40949 51.6055 106.7696 0006699 286.1344 73.8944 16.38002265 59645 LQSat 1 40958U 15057A 16350.83159675 .00000071 00000-0 18932-4 0 9998 2 40958 97.9983 63.1763 0017078 295.8853 64.0577 14.72930769 64122 AO-85 1 40967U 15058D 16350.47219564 .00000320 00000-0 55282-4 0 03410 2 40967 064.7782 056.0813 0181640 145.2765 216.0293 14.75274278050011 ATHENOXAT-1 1 41168U 15077C 16350.57473324 .00002766 00000-0 12203-3 0 9992 2 41168 14.9891 70.0817 0012459 351.7506 56.3952 15.10884679 55228 ChubuSat-2 1 41338U 16012B 16349.91657076 .00000360 00000-0 21696-4 0 9990 2 41338 031.0021 202.4462 0013861 034.9685 325.1859 14.99595889045304 ChubuSat-3 1 41339U 16012C 16350.73587528 .00000508 00000-0 33274-4 0 9996 2 41339 31.0125 196.6905 0013691 49.1268 311.0551 14.99813939 45405 Horyu-4 1 41340U 16012D 16350.64985107 .00000517 00000-0 33430-4 0 9997 2 41340 31.0040 195.8714 0014110 55.1039 305.0920 15.00359111 45427 OUFTI-1 1 41458U 16025C 16350.79679756 .00001588 00000-0 89964-4 0 9999 2 41458 98.2083 11.7880 0178030 181.2999 178.7779 15.02300522 35034 e-st@r-II 1 41459U 16025D 16350.80261784 .00001826 00000-0 10266-3 0 9993 2 41459 98.2091 11.7708 0178855 181.6155 178.4510 15.02209072 35034 AAUSAT4 1 41460U 16025E 16350.82179134 .00003053 00000-0 17041-3 0 9996 2 41460 98.1948 11.8294 0171204 180.9388 179.1522 15.02751860 35047 MinXSS 1 41474U 98067HU 16350.78269294 .00025944 00000-0 20123-3 0 9997 2 41474 51.6401 220.7042 0003698 148.9421 211.2324 15.71104067 33330 CADRE 1 41475U 98067HV 16350.75506502 .00243854 00000-0 63520-3 0 9991 2 41475 51.6290 212.0922 0008035 192.4703 167.6626 15.94154815 33447 NODES 1 1 41477U 98067HX 16350.64986181 .00015593 00000-0 14936-3 0 9990 2 41477 51.6363 224.2677 0003589 119.5402 240.6479 15.65969227 33185 NODES 2 1 41478U 98067HY 16350.85026555 .00016788 00000-0 16714-3 0 9997 2 41478 51.6356 223.3523 0003427 119.2670 240.8668 15.65829673 33219 LO-87 1 41557U 16033B 16350.81834477 .00001348 00000-0 54751-4 0 9994 2 41557 97.4818 64.2681 0013154 296.9240 63.0654 15.26305128 30453 NuSat2 1 41558U 16033C 16350.83633317 .00001347 00000-0 54924-4 0 9998 2 41558 97.4844 64.3092 0012618 295.6024 64.3910 15.26174047 30453 Lapan A3 1 41603U 16040E 16350.81520083 .00000381 00000-0 21350-4 0 9994 2 41603 97.4888 48.7208 0013920 0.6516 92.2042 15.19222817 26816 Swayam 1 41607U 16040J 16349.91116647 .00001468 00000-0 71326-4 0 9999 2 41607 097.4869 047.8459 0014685 006.7803 353.3628 15.19948822026601 Pratham 1 41783U 16059A 16350.70646156 .00000068 00000-0 22701-4 0 9994 2 41783 98.1942 47.7258 0033965 18.1490 342.0915 14.62789093 11779 OBJECT B 1 41784U 16059B 16350.41324892 .00000128 00000-0 34252-4 0 9994 2 41784 98.1944 47.4801 0032373 18.9633 341.2767 14.63154779 11709 OBJECT C 1 41785U 16059C 16350.81934334 .00000017 00000-0 12728-4 0 9998 2 41785 98.1943 47.8908 0032120 17.1211 343.1053 14.63216560 11766 OBJECT D 1 41786U 16059D 16350.91518996 .00000129 00000-0 32185-4 0 9995 2 41786 98.2216 48.6368 0001361 89.8023 270.3329 14.66314225 11802 OBJECT E 1 41787U 16059E 16350.73741909 .00000122 00000-0 32841-4 0 9990 2 41787 98.1941 47.8420 0030996 16.9067 343.3164 14.63471181 11756 OBJECT F 1 41788U 16059F 16350.38578227 .00000057 00000-0 20375-4 0 9999 2 41788 98.1946 47.5137 0030164 20.6583 339.5816 14.63651263 11703 AlSat 1N 1 41789U 16059G 16350.70922563 .00000149 00000-0 37684-4 0 9995 2 41789 98.1944 47.8801 0028818 13.8251 346.3730 14.63988346 11764 ScatSat 1 41790U 16059H 16350.71936907 .00000047 00000-0 22921-4 0 9990 2 41790 98.0931 42.2654 0011078 359.2496 0.8680 14.50086145 11672 OBJECT J 1 41791U 16059J 16350.27032129 .00000042 00000-0 18608-4 0 9997 2 41791 98.2654 47.5974 0043188 25.6443 334.6886 14.60751960 11696 OBJECT K 1 41792U 16059K 16349.81439872 .00000338 00000-0 73323-4 0 9995 2 41792 98.1953 47.0148 0028023 20.9622 339.2723 14.64128430 11622 TY-1 1 41844U 16066D 16350.82987446 -.00000070 00000-0 00000 0 0 9990 2 41844 97.4056 354.8400 0017171 155.2704 328.0561 15.21529561 5455 CAS-2T 1 41845U 16066E 16350.66661524 -.00000066 00000-0 00000 0 0 9994 2 41845 98.7825 355.8780 0368174 72.9137 291.2047 14.37667334 5124 Pegasus-1 1 41846U 16066F 16350.68827664 -.00000066 00000-0 00000 0 0 9996 2 41846 98.7848 355.8624 0371035 73.4187 290.7401 14.36802562 5129 /EX
